Location: Newton_East
(35.6670°N, 81.2000°W)
Time: 21:11:46
(UTC-04:00)

ISS - Visible Passes

Search period start: 04 September 2015 00:00
Search period end: 14 September 2015 00:00
Orbit: 400 x 402 km, 51.6° (Epoch: 04 September)

Date Brightness Start Highest point End Pass type
(mag) Time Alt. Az. Time Alt. Az. Time Alt. Az.
06 Sep -0.8 06:14:44 10° S 06:17:05 19° SE 06:19:30 10° E visible
08 Sep -2.6 06:03:55 13° SSW 06:06:37 50° SE 06:09:48 10° ENE visible
09 Sep -1.4 05:13:11 22° SE 05:13:22 22° SE 05:16:01 10° ENE visible
10 Sep -3.2 05:54:56 31° WSW 05:56:14 58° NW 05:59:27 10° NE visible
11 Sep -1.7 05:03:59 35° ENE 05:03:59 35° ENE 05:06:05 10° NE visible
11 Sep -1.2 06:37:27 10° WNW 06:39:33 16° NNW 06:41:35 10° NNE visible
12 Sep -2.0 05:45:32 25° NW 05:45:56 25° NNW 05:48:43 10° NNE visible
13 Sep -0.8 04:54:25 20° NNE 04:54:25 20° NNE 04:55:36 10° NE visible
